This is the latest recevied weather packets stored in our database for station/object EA1IOK-1. If no packets are shown the sender has not sent any weather packets the latest 10 day(s).
| Time | Temp. | Humidity | Pressure | Rain* | Wind** | Luminosity | Snow |
|---|---|---|---|---|---|---|---|
| 1778137106 | 8.33° C | 100% | 1009.6 hPa | - | - | - | - |
| 1778136202 | 7.78° C | 100% | 1009.4 hPa | - | - | - | - |
| 1778135302 | 7.22° C | 100% | 1009.5 hPa | - | - | - | - |
| 1778134401 | 7.22° C | 100% | 1009.4 hPa | - | - | - | - |
| 1778133500 | 6.67° C | 100% | 1009.4 hPa | - | - | - | - |
| 1778132630 | 6.11° C | 100% | 1009.6 hPa | - | - | - | - |
| 1778132598 | 6.11° C | 100% | 1009.6 hPa | - | - | - | - |
| 1778131698 | 6.11° C | 100% | 1009.7 hPa | - | - | - | - |
| 1778130801 | 6.11° C | 100% | 1009.8 hPa | - | - | - | - |
| 1778129896 | 6.11° C | 100% | 1009.7 hPa | - | - | - | - |
| 1778129001 | 6.11° C | 100% | 1009.7 hPa | - | - | - | - |
| 1778128134 | 6.11° C | 100% | 1009.8 hPa | - | - | - | - |
| 1778128101 | 6.11° C | 100% | 1009.8 hPa | - | - | - | - |
| 1778127193 | 5.56° C | 100% | 1009.8 hPa | - | - | - | - |
| 1778126297 | 6.11° C | 100% | 1009.8 hPa | - | - | - | - |
| 1778125407 | 6.11° C | 100% | 1010 hPa | - | - | - | - |
| 1778124492 | 5.56° C | 100% | 1010.1 hPa | - | - | - | - |
| 1778123593 | 6.11° C | 100% | 1010.1 hPa | - | - | - | - |
| 1778122694 | 6.11° C | 100% | 1010 hPa | - | - | - | - |
| 1778121789 | 6.11° C | 100% | 1010.2 hPa | - | - | - | - |
| 1778120895 | 6.67° C | 100% | 1010.1 hPa | - | - | - | - |
| 1778119989 | 7.22° C | 100% | 1010.3 hPa | - | - | - | - |
| 1778119124 | 6.67° C | 100% | 1010.3 hPa | - | - | - | - |
| 1778119092 | 6.67° C | 100% | 1010.3 hPa | - | - | - | - |
| 1778118191 | 6.11° C | 100% | 1010.3 hPa | - | - | - | - |
* Rain since midnight (hover to see other rain measurements)
** Current wind speed in m/s (hover to see current wind gust speed)